星链-2042 (STARLINK-2042 )

导读

STARLINK-2042是美国太空探索技术公司星链计划中的卫星,于北京时间2021年2月16日发射,属于低轨通信卫星。它旨在为全球提供高速互联网接入服务,尤其覆盖偏远区域,丰富了星链星座组网规模,推动了全球卫星互联网建设进程。

基本信息
目录编号:
47658
目录名称:
STARLINK-2042
国际标识:
2021-012AQ
轨道中心:
EARTH
卫星名称:
星链-2042
卫星全名:
星链-2042 (STARLINK-2042 )
卫星状态:
已陨落 最后检测时间 2025-02-13
发射日期:
2021-02-16 UTC
国别 :
美国 (US)
星等 :
--
该卫星已列入 空间交会检测服务 Space Conjunction Data Service (SCDS) ,当前飞行风险评估等级: 无高风险
轨道信息
数据来源 国际轨道数据
星历时间: 2025-02-13T14:13:58+0800
轨道信息已过期575天
半长轴: 6526.19km
偏心率: 0.0004478
轨道倾角: 53.017°
近地点辐角 291.656°
升交点赤经 343.358°
平近点角 186.719°
近地点: 145.132km
远地点: 150.978km
周期: 87.448分钟
每日圈数: 16.466952
详细信息
固有亮度:
5
最大亮度:
2.5
卫星平台:
Starlink V1.0
覆盖范围:
全球
运营商:
太空探索技术公司
运营商所在国:
美国
制造商(研发单位):
太空探索技术公司
制造商所在国:
美国
使用方式:
暂无
卫星简介
星链(Starlink)计划是由太空探索技术公司(SpaceX)提出的一个巨型低轨卫星互联网星座项目,计划在2019年至2024年间在太空搭建由约1.2万颗卫星组成的“星链”网络,其中1584颗将部署在地球上空550千米处的近地轨道,并从2020年开始工作。该卫星仍在工作。
与全量物体交会距离演化趋势
与全量物体交会风险概率演化趋势